GW6788 Weather Reports


time (UTC)temp
C
wind
direction
speed
KPH
gust
KPH
rain 1hr
cm
rain 24hr
cm
rain mn
cm
humidity
%
barometer
mb
20260906060514 22 54 1.6 3.2 0.00 0.00 0.00 88 1013.4
20260906060033 22 63 1.6 3.2 0.00 0.00 0.00 88 1013.4
20260906055515 22 36 1.6 3.2 0.00 0.00 0.00 88 1013.4
20260906055017 22 25 0.0 3.2 0.00 0.00 0.00 88 1013.5
20260906054548 22 4 0.0 3.2 0.00 0.00 0.00 87 1013.6
20260906054010 22 29 0.0 3.2 0.00 0.00 0.00 88 1013.5
20260906053510 22 29 0.0 3.2 0.00 0.00 0.00 88 1013.6
20260906053028 22 34 0.0 3.2 0.00 0.00 0.00 88 1013.6
20260906052512 22 36 0.0 3.2 0.00 0.00 0.00 88 1013.6
20260906052014 22 38 0.0 1.6 0.00 0.00 0.00 88 1013.7
20260906051532 22 48 1.6 3.2 0.00 0.00 0.00 88 1013.8
20260906051004 22 31 1.6 3.2 0.00 0.00 0.00 88 1013.8
20260906050503 22 31 1.6 3.2 0.00 0.00 0.00 88 1013.9
20260906050011 22 340 0.0 3.2 0.00 0.00 0.00 88 1014.0
20260906045505 22 339 0.0 3.2 0.00 0.00 0.00 88 1013.9
20260906045006 22 340 0.0 3.2 0.00 0.00 0.00 88 1013.8
20260906044517 22 30 0.0 3.2 0.00 0.00 0.00 88 1014.0
20260906044005 22 30 0.0 3.2 0.00 0.00 0.00 88 1014.0
20260906043512 22 30 0.0 3.2 0.00 0.00 0.00 88 1013.9
20260906043020 22 30 1.6 3.2 0.00 0.00 0.00 88 1013.8
20260906042511 22 31 0.0 3.2 0.00 0.00 0.00 87 1013.8
20260906042014 23 31 0.0 3.2 0.00 0.00 0.00 87 1013.9
20260906041504 23 31 0.0 3.2 0.00 0.00 0.00 87 1013.9
20260906041005 23 34 0.0 3.2 0.00 0.00 0.00 87 1014.0
20260906040507 23 34 0.0 1.6 0.00 0.00 0.00 87 1014.1
20260906040007 23 109 0.0 3.2 0.00 0.00 0.00 87 1014.1
20260906035504 23 164 0.0 3.2 0.00 0.00 0.00 87 1014.2
20260906035007 23 160 0.0 3.2 0.00 0.00 0.00 87 1014.3
20260906034519 23 159 0.0 3.2 0.00 0.00 0.00 87 1014.3
20260906034005 23 157 1.6 3.2 0.00 0.00 0.00 87 1014.2
20260906033505 23 230 1.6 3.2 0.00 0.00 0.00 87 1014.1
20260906033020 23 273 0.0 3.2 0.00 0.00 0.00 87 1014.2
20260906032511 23 273 0.0 3.2 0.00 0.00 0.00 87 1014.3
20260906032011 23 273 0.0 3.2 0.00 0.00 0.00 86 1014.2
20260906031555 23 10 0.0 1.6 0.00 0.00 0.00 86 1014.3
20260906031014 23 332 0.0 3.2 0.00 0.00 0.00 86 1014.1
20260906030503 23 256 0.0 3.2 0.00 0.00 0.00 85 1014.1
20260906030011 23 257 0.0 3.2 0.00 0.00 0.00 86 1014.1
20260906025508 23 257 0.0 3.2 0.00 0.00 0.00 86 1014.0
20260906025006 23 257 0.0 3.2 0.00 0.00 0.00 86 1014.0
20260906024533 23 261 0.0 3.2 0.00 0.00 0.00 87 1014.0
20260906024006 23 289 0.0 3.2 0.00 0.00 0.00 86 1014.0
20260906023506 23 293 0.0 3.2 0.00 0.00 0.00 86 1014.0
20260906023020 23 347 0.0 3.2 0.00 0.00 0.00 86 1013.9
20260906022508 23 347 0.0 3.2 0.00 0.00 0.00 86 1013.8
20260906022011 23 347 0.0 3.2 0.00 0.00 0.00 87 1013.8
20260906021526 23 346 0.0 3.2 0.00 0.00 0.00 87 1013.7
20260906021010 23 345 0.0 3.2 0.00 0.00 0.00 86 1013.8
20260906020514 23 314 0.0 3.2 0.00 0.00 0.00 86 1013.7
20260906020028 23 280 1.6 3.2 0.00 0.00 0.00 86 1013.6
20260906015513 23 278 1.6 1.6 0.00 0.00 0.00 86 1013.7
20260906015004 24 278 1.6 1.6 0.00 0.00 0.00 85 1013.8
20260906014516 24 278 0.0 1.6 0.00 0.00 0.00 85 1013.8
20260906014003 24 278 0.0 3.2 0.00 0.00 0.00 84 1013.7
20260906013504 24 278 0.0 3.2 0.00 0.00 0.00 84 1013.7
20260906013017 25 278 1.6 3.2 0.00 0.00 0.00 83 1013.6
20260906012511 25 27 0.0 1.6 0.00 0.00 0.00 83 1013.5
20260906012008 25 24 0.0 3.2 0.00 0.00 0.00 83 1013.5
20260906011523 25 24 0.0 3.2 0.00 0.00 0.00 82 1013.3
20260906011013 25 24 0.0 3.2 0.00 0.00 0.00 83 1013.4
20260906010512 25 264 0.0 3.2 0.00 0.00 0.00 83 1013.4
20260906010042 25 264 1.6 3.2 0.00 0.00 0.00 82 1013.3
20260906005511 26 86 0.0 3.2 0.00 0.00 0.00 80 1013.3
20260906005014 26 239 0.0 3.2 0.00 0.00 0.00 81 1013.3
20260906004535 26 239 0.0 3.2 0.00 0.00 0.00 81 1013.3
20260906004003 26 239 0.0 3.2 0.00 0.00 0.00 80 1013.3
20260906003503 26 239 0.0 3.2 0.00 0.00 0.00 79 1013.2
20260906003014 26 218 0.0 0.0 0.00 0.00 0.00 79 1013.1
20260906002504 26 218 0.0 3.2 0.00 0.00 0.00 78 1013.1
20260906002012 27 218 0.0 3.2 0.00 0.00 0.00 77 1012.9
20260906001518 27 209 0.0 3.2 0.00 0.00 0.00 75 1012.9
20260906001007 27 88 0.0 3.2 0.00 0.00 0.00 74 1012.9
20260906000512 27 171 0.0 3.2 0.00 0.00 0.00 70 1012.7
20260906000027 27 171 0.0 3.2 0.00 0.00 0.00 70 1012.6
20260905235513 28 191 1.6 3.2 0.00 0.00 0.00 70 1012.5
20260905235017 28 273 0.0 3.2 0.00 0.00 0.00 71 1012.4
20260905234532 28 312 0.0 1.6 0.00 0.00 0.00 70 1012.4
20260905234014 28 312 0.0 3.2 0.00 0.00 0.00 68 1012.3
20260905233517 28 312 0.0 3.2 0.00 0.00 0.00 67 1012.5
20260905233030 28 289 0.0 3.2 0.00 0.00 0.00 67 1012.4
20260905232504 28 264 1.6 3.2 0.00 0.00 0.00 66 1012.3
20260905232004 28 267 1.6 4.8 0.00 0.00 0.00 66 1012.4
20260905231513 29 294 1.6 4.8 0.00 0.00 0.00 66 1012.3
20260905231009 29 275 3.2 4.8 0.00 0.00 0.00 64 1012.3
20260905230509 30 265 3.2 4.8 0.00 0.00 0.00 64 1012.4
20260905230031 30 261 3.2 4.8 0.00 0.00 0.00 63 1012.5
20260905225511 30 249 1.6 4.8 0.00 0.00 0.00 63 1012.4
20260905225012 30 263 3.2 4.8 0.00 0.00 0.00 65 1012.3
20260905224527 30 336 0.0 3.2 0.00 0.00 0.00 62 1012.3
20260905224013 30 7 1.6 6.4 0.00 0.00 0.00 63 1012.3
20260905223515 30 3 1.6 6.4 0.00 0.00 0.00 63 1012.2
20260905223032 30 17 1.6 8.0 0.00 0.00 0.00 64 1012.2
20260905222516 30 31 4.8 8.0 0.00 0.00 0.00 64 1012.3
20260905222018 30 4 1.6 4.8 0.00 0.00 0.00 64 1012.3
20260905221511 30 26 3.2 4.8 0.00 0.00 0.00 64 1012.3
20260905221005 30 358 1.6 6.4 0.00 0.00 0.00 62 1012.2
20260905220508 30 33 4.8 6.4 0.00 0.00 0.00 64 1012.3
20260905220023 30 349 4.8 6.4 0.00 0.00 0.00 64 1012.4
20260905215511 30 30 0.0 6.4 0.00 0.00 0.00 64 1012.4
20260905215009 30 314 3.2 6.4 0.00 0.00 0.00 63 1012.5
20260905214522 29 31 1.6 4.8 0.00 0.00 0.00 64 1012.7
20260905214014 29 34 1.6 4.8 0.00 0.00 0.00 65 1012.9
20260905213514 28 126 0.0 3.2 0.00 0.00 0.00 65 1013.0
20260905213030 28 31 0.0 4.8 0.00 0.00 0.00 66 1013.1
20260905212516 28 30 1.6 4.8 0.00 0.00 0.00 65 1013.0
20260905212014 28 29 1.6 4.8 0.00 0.00 0.00 66 1013.1
20260905211555 28 296 0.0 4.8 0.00 0.00 0.00 66 1013.1
20260905211020 27 273 3.2 4.8 0.00 0.00 0.00 66 1013.2
20260905210507 27 259 1.6 4.8 0.00 0.00 0.00 66 1013.1
20260905210014 27 236 3.2 8.0 0.00 0.00 0.00 66 1013.0
20260905205507 27 242 3.2 8.0 0.00 0.00 0.00 67 1012.9
20260905205009 27 270 4.8 8.0 0.00 0.00 0.00 67 1013.0
20260905204524 27 299 3.2 8.0 0.00 0.00 0.00 68 1013.0
20260905204015 26 287 3.2 8.0 0.00 0.00 0.00 70 1013.1
20260905203510 26 309 3.2 6.4 0.00 0.00 0.00 70 1013.3
20260905203027 26 277 3.2 11.3 0.00 0.00 0.00 72 1013.4
20260905202513 26 276 4.8 11.3 0.00 0.00 0.00 74 1013.3
20260905202014 26 259 6.4 11.3 0.00 0.00 0.00 74 1013.3
20260905201541 26 259 3.2 9.7 0.00 0.00 0.00 73 1013.2
20260905201014 26 285 3.2 8.0 0.00 0.00 0.00 70 1013.0
20260905200518 26 86 1.6 3.2 0.00 0.00 0.00 72 1012.9
20260905200036 26 178 1.6 3.2 0.00 0.00 0.00 71 1013.4
20260905195506 26 234 1.6 3.2 0.00 0.00 0.00 72 1013.6
20260905195009 26 186 1.6 3.2 0.00 0.00 0.00 72 1013.7
20260905194520 26 349 0.0 4.8 0.00 0.00 0.00 72 1013.9
20260905194011 26 299 0.0 4.8 0.00 0.00 0.00 74 1013.9
20260905193512 26 52 3.2 6.4 0.00 0.00 0.00 74 1013.9
20260905193026 26 345 1.6 8.0 0.00 0.00 0.00 75 1014.0
20260905192512 26 287 3.2 9.7 0.00 0.00 0.00 75 1014.0
20260905192012 26 277 6.4 9.7 0.00 0.00 0.00 75 1013.8
20260905191530 26 275 1.6 9.7 0.00 0.00 0.00 74 1013.4
20260905191016 26 68 6.4 9.7 0.00 0.00 0.00 75 1012.9
20260905190515 26 30 6.4 8.0 0.00 0.00 0.00 74 1012.8
20260905190032 26 3 1.6 4.8 0.00 0.00 0.00 74 1012.8
20260905185516 25 29 0.0 4.8 0.00 0.00 0.00 75 1012.9
20260905185016 25 6 1.6 6.4 0.00 0.00 0.00 77 1013.0
20260905184533 25 217 1.6 6.4 0.00 0.00 0.00 77 1013.0
20260905184010 25 31 3.2 6.4 0.00 0.00 0.00 77 1013.1
20260905183510 25 29 4.8 8.0 0.00 0.00 0.00 76 1013.3
20260905183032 25 95 0.0 11.3 0.00 0.00 0.00 75 1013.3
20260905182512 25 45 6.4 16.1 0.00 0.00 0.00 75 1013.5
20260905182012 26 30 6.4 16.1 0.00 0.00 0.00 73 1013.6
20260905181526 26 29 8.0 22.5 0.00 0.00 0.00 71 1013.9
20260905181015 27 28 14.5 27.4 0.00 0.00 0.00 67 1013.9
20260905180512 28 39 11.3 30.6 0.00 0.00 0.00 66 1014.3
20260905180008 31 65 16.1 30.6 0.00 0.00 0.00 56 1013.9
20260905175507 33 353 17.7 29.0 0.00 0.00 0.00 46 1014.1
20260905175004 34 30 8.0 14.5 0.00 0.00 0.00 49 1013.9
20260905174514 35 39 6.4 16.1 0.00 0.00 0.00 50 1013.9
20260905174008 35 11 6.4 16.1 0.00 0.00 0.00 50 1014.2
20260905173508 35 22 9.7 16.1 0.00 0.00 0.00 51 1014.4
20260905173048 35 30 4.8 9.7 0.00 0.00 0.00 49 1014.3
20260905172511 35 294 3.2 11.3 0.00 0.00 0.00 51 1014.2
20260905172012 34 20 1.6 14.5 0.00 0.00 0.00 51 1014.5
20260905171503 34 293 4.8 14.5 0.00 0.00 0.00 50 1014.6
20260905171003 35 339 6.4 12.9 0.00 0.00 0.00 49 1014.6
20260905170503 35 327 8.0 14.5 0.00 0.00 0.00 49 1014.6
20260905170007 34 284 4.8 14.5 0.00 0.00 0.00 49 1014.6
20260905165506 34 31 6.4 14.5 0.00 0.00 0.00 50 1014.7
20260905165004 34 30 6.4 14.5 0.00 0.00 0.00 50 1014.8
20260905164514 34 337 6.4 17.7 0.00 0.00 0.00 50 1014.8
20260905164008 34 38 8.0 17.7 0.00 0.00 0.00 52 1014.9
20260905163505 33 332 1.6 14.5 0.00 0.00 0.00 52 1014.9
20260905163017 33 29 3.2 9.7 0.00 0.00 0.00 57 1014.9
20260905162515 33 268 3.2 8.0 0.00 0.00 0.00 58 1015.0
20260905162010 33 38 1.6 11.3 0.00 0.00 0.00 60 1015.1
20260905161524 32 285 6.4 11.3 0.00 0.00 0.00 60 1015.1
20260905161015 32 278 4.8 11.3 0.00 0.00 0.00 59 1015.1
20260905160502 32 269 8.0 11.3 0.00 0.00 0.00 59 1015.2
20260905160006 32 269 4.8 9.7 0.00 0.00 0.00 59 1015.3
20260905155504 32 47 1.6 9.7 0.00 0.00 0.00 61 1015.3
20260905155003 32 303 4.8 8.0 0.00 0.00 0.00 61 1015.2
20260905154510 32 273 6.4 8.0 0.00 0.00 0.00 61 1015.2
20260905154010 32 263 1.6 8.0 0.00 0.00 0.00 62 1015.2
20260905153507 32 311 3.2 8.0 0.00 0.00 0.00 60 1015.3
20260905153015 32 270 4.8 8.0 0.00 0.00 0.00 63 1015.2
20260905152510 31 154 3.2 6.4 0.00 0.00 0.00 63 1015.2
20260905152010 31 266 1.6 6.4 0.00 0.00 0.00 64 1015.2
20260905151523 31 271 1.6 6.4 0.00 0.00 0.00 64 1015.2
20260905151015 31 242 4.8 6.4 0.00 0.00 0.00 63 1015.2
20260905150512 31 199 3.2 4.8 0.00 0.00 0.00 65 1015.2
20260905150027 31 310 1.6 6.4 0.00 0.00 0.00 66 1015.2
20260905145504 30 292 1.6 8.0 0.00 0.00 0.00 68 1015.2
20260905145004 30 262 3.2 8.0 0.00 0.00 0.00 68 1015.1
20260905144510 30 266 1.6 6.4 0.00 0.00 0.00 70 1015.2
20260905144003 30 265 4.8 6.4 0.00 0.00 0.00 70 1015.2
20260905143506 30 330 1.6 6.4 0.00 0.00 0.00 70 1015.3
20260905143016 29 269 4.8 8.0 0.00 0.00 0.00 70 1015.2
20260905142506 29 304 4.8 8.0 0.00 0.00 0.00 72 1015.2
20260905142008 29 224 3.2 6.4 0.00 0.00 0.00 74 1015.1
20260905141526 28 314 3.2 6.4 0.00 0.00 0.00 74 1015.2
20260905141010 28 229 1.6 6.4 0.00 0.00 0.00 74 1015.2
20260905140515 28 291 3.2 6.4 0.00 0.00 0.00 75 1015.2
20260905140028 28 268 3.2 6.4 0.00 0.00 0.00 76 1015.3
20260905135513 28 230 1.6 6.4 0.00 0.00 0.00 77 1015.2
20260905135014 28 265 3.2 8.0 0.00 0.00 0.00 77 1015.2
20260905134535 27 357 4.8 8.0 0.00 0.00 0.00 78 1015.2
20260905134004 27 311 3.2 6.4 0.00 0.00 0.00 79 1015.3
20260905133503 27 88 0.0 6.4 0.00 0.00 0.00 80 1015.4
20260905133010 27 280 1.6 6.4 0.00 0.00 0.00 81 1015.3
20260905132504 26 261 3.2 6.4 0.00 0.00 0.00 81 1015.3
20260905132008 26 261 3.2 6.4 0.00 0.00 0.00 82 1015.3
20260905131521 26 263 1.6 4.8 0.00 0.00 0.00 83 1015.4
20260905131008 26 29 0.0 4.8 0.00 0.00 0.00 84 1015.4
20260905130509 25 30 1.6 3.2 0.00 0.00 0.00 85 1015.4
20260905130025 25 304 0.0 4.8 0.00 0.00 0.00 86 1015.4
20260905125510 25 12 0.0 6.4 0.00 0.00 0.00 86 1015.5
20260905125012 25 29 3.2 6.4 0.00 0.00 0.00 86 1015.6
20260905124537 24 3 1.6 4.8 0.00 0.00 0.00 88 1015.6
20260905124018 24 338 0.0 3.2 0.00 0.00 0.00 88 1015.5
20260905123514 24 12 0.0 3.2 0.00 0.00 0.00 88 1015.6
20260905123009 23 257 0.0 3.2 0.00 0.00 0.00 89 1015.7
20260905122504 23 237 3.2 3.2 0.00 0.00 0.00 89 1015.6
20260905122005 23 255 1.6 1.6 0.00 0.00 0.00 89 1015.6
20260905121515 23 259 1.6 3.2 0.00 0.00 0.00 90 1015.4
20260905121007 23 265 0.0 3.2 0.00 0.00 0.00 90 1015.3
20260905120514 23 268 0.0 3.2 0.00 0.00 0.00 91 1015.2
20260905120027 23 269 0.0 3.2 0.00 0.00 0.00 91 1015.3
20260905115510 23 276 0.0 3.2 0.00 0.00 0.00 91 1015.2
20260905115012 23 276 0.0 1.6 0.00 0.00 0.00 91 1015.2
20260905114532 23 277 1.6 1.6 0.00 0.00 0.00 90 1015.1
20260905114017 23 33 0.0 0.0 0.00 0.00 0.00 91 1015.0
20260905113514 23 33 0.0 0.0 0.00 0.00 0.00 91 1015.0
20260905113031 23 31 0.0 0.0 0.00 0.00 0.00 91 1015.0
20260905112516 23 60 0.0 0.0 0.00 0.00 0.00 91 1015.0
20260905112003 23 60 0.0 0.0 0.00 0.00 0.00 92 1015.0
20260905111515 22 60 0.0 0.0 0.00 0.00 0.00 91 1014.8
20260905111008 22 66 0.0 0.0 0.00 0.00 0.00 91 1014.7
20260905110506 22 31 0.0 3.2 0.00 0.00 0.00 91 1014.7
20260905110021 22 31 0.0 3.2 0.00 0.00 0.00 90 1014.7
20260905105512 22 281 0.0 1.6 0.00 0.00 0.00 91 1014.6
20260905105013 23 281 0.0 1.6 0.00 0.00 0.00 91 1014.6
20260905104526 23 281 1.6 1.6 0.00 0.00 0.00 91 1014.5
20260905104011 23 280 0.0 1.6 0.00 0.00 0.00 91 1014.5
20260905103514 23 292 0.0 3.2 0.00 0.00 0.00 91 1014.5
20260905103029 22 29 0.0 3.2 0.00 0.00 0.00 91 1014.5
20260905102515 22 29 0.0 3.2 0.00 0.00 0.00 91 1014.4
20260905102015 23 31 1.6 3.2 0.00 0.00 0.00 91 1014.4
20260905101535 23 8 0.0 3.2 0.00 0.00 0.00 91 1014.3
20260905101014 23 9 0.0 3.2 0.00 0.00 0.00 91 1014.3
20260905100508 23 29 0.0 1.6 0.00 0.00 0.00 90 1014.4
20260905100020 23 29 0.0 3.2 0.00 0.00 0.00 91 1014.5
20260905095508 23 227 0.0 3.2 0.00 0.00 0.00 91 1014.4
20260905095013 23 250 0.0 3.2 0.00 0.00 0.00 91 1014.3
20260905094528 23 253 1.6 3.2 0.00 0.00 0.00 90 1014.3
20260905094013 23 262 0.0 3.2 0.00 0.00 0.00 90 1014.4
20260905093511 23 247 1.6 3.2 0.00 0.00 0.00 90 1014.4
20260905093028 23 270 0.0 3.2 0.00 0.00 0.00 90 1014.5
20260905092514 23 270 0.0 3.2 0.00 0.00 0.00 89 1014.3
20260905092014 23 266 1.6 3.2 0.00 0.00 0.00 89 1014.3
20260905091529 23 26 0.0 3.2 0.00 0.00 0.00 89 1014.3
20260905091016 23 26 0.0 3.2 0.00 0.00 0.00 89 1014.4
20260905090520 23 3 0.0 3.2 0.00 0.00 0.00 89 1014.4
20260905090033 23 3 0.0 3.2 0.00 0.00 0.00 89 1014.4
20260905085506 23 3 0.0 3.2 0.00 0.00 0.00 89 1014.3
20260905085009 23 29 0.0 3.2 0.00 0.00 0.00 89 1014.3
20260905084523 23 29 0.0 3.2 0.00 0.00 0.00 89 1014.3
20260905084009 23 29 0.0 3.2 0.00 0.00 0.00 89 1014.5
20260905083510 23 29 0.0 3.2 0.00 0.00 0.00 88 1014.5
20260905083027 23 278 0.0 3.2 0.00 0.00 0.00 88 1014.5
20260905082513 23 279 1.6 3.2 0.00 0.00 0.00 88 1014.4
20260905082014 23 19 0.0 3.2 0.00 0.00 0.00 88 1014.5
20260905081534 23 24 0.0 3.2 0.00 0.00 0.00 88 1014.5
20260905081003 23 31 0.0 3.2 0.00 0.00 0.00 88 1014.6
20260905080504 23 66 1.6 3.2 0.00 0.00 0.00 88 1014.7
20260905080014 23 52 1.6 3.2 0.00 0.00 0.00 88 1014.7
20260905075506 23 36 1.6 3.2 0.00 0.00 0.00 88 1014.8
20260905075005 23 339 0.0 3.2 0.00 0.00 0.00 88 1014.9
20260905074528 23 298 0.0 3.2 0.00 0.00 0.00 88 1014.8
20260905074011 23 298 0.0 3.2 0.00 0.00 0.00 88 1014.8
20260905073510 23 29 0.0 3.2 0.00 0.00 0.00 88 1014.9
20260905073005 23 29 0.0 3.2 0.00 0.00 0.00 88 1015.0
20260905072503 23 29 0.0 3.2 0.00 0.00 0.00 88 1015.0
20260905072002 24 34 0.0 3.2 0.00 0.00 0.00 89 1015.0
20260905071516 24 31 1.6 3.2 0.00 0.00 0.00 88 1015.0
20260905071002 24 3 0.0 3.2 0.00 0.00 0.00 88 1015.0
20260905070503 24 332 0.0 1.6 0.00 0.00 0.00 88 1015.1
20260905070011 24 332 0.0 3.2 0.00 0.00 0.00 88 1015.2
20260905065510 24 332 0.0 3.2 0.00 0.00 0.00 88 1015.2
20260905065004 24 289 0.0 3.2 0.00 0.00 0.00 88 1015.3
20260905064517 24 279 0.0 3.2 0.00 0.00 0.00 88 1015.4
20260905064011 24 273 1.6 3.2 0.00 0.00 0.00 88 1015.4
20260905063508 24 278 0.0 3.2 0.00 0.00 0.00 87 1015.4
20260905063027 24 7 0.0 3.2 0.00 0.00 0.00 87 1015.5
20260905062511 24 280 0.0 1.6 0.00 0.00 0.00 87 1015.5
20260905062014 25 278 0.0 3.2 0.00 0.00 0.00 87 1015.4
20260905061504 25 278 0.0 3.2 0.00 0.00 0.00 87 1015.5
20260905061001 25 278 0.0 3.2 0.00 0.00 0.00 86 1015.7